HB9BFD-10 Weather Reports


time (UTC)temp
F
wind
direction
speed
knots
gust
knots
rain 1hr
in
rain 24hr
in
rain mn
in
humidity
%
barometer
mb
20260505200442 0 0.0 0.0 0.00 0.00 0.00 76 1012.6
20260505195942 0 0.0 0.0 0.00 0.00 0.00 76 1012.4
20260505195442 0 0.0 0.0 0.00 0.00 0.00 75 1012.4
20260505194942 0 0.0 0.0 0.00 0.00 0.00 75 1012.4
20260505194442 0 0.0 0.0 0.00 0.00 0.00 75 1012.4
20260505193942 0 0.0 0.0 0.00 0.00 0.00 75 1012.3
20260505193442 0 0.0 0.0 0.00 0.00 0.00 74 1012.3
20260505192942 0 0.0 0.0 0.00 0.00 0.00 73 1012.3
20260505192442 0 0.0 0.0 0.00 0.00 0.00 72 1012.2
20260505191942 0 0.0 0.0 0.00 0.00 0.00 72 1012.1
20260505191442 0 0.0 0.0 0.00 0.00 0.00 73 1012.0
20260505190942 0 0.0 0.0 0.00 0.00 0.00 73 1012.0
20260505190442 0 0.0 0.0 0.00 0.00 0.00 73 1012.0
20260505185942 0 0.0 0.0 0.00 0.00 0.00 73 1011.8
20260505185442 0 0.0 0.0 0.00 0.00 0.00 72 1011.8
20260505184942 0 0.0 0.0 0.00 0.00 0.00 71 1011.7
20260505184442 0 0.0 0.0 0.00 0.00 0.00 70 1011.8
20260505183942 0 0.0 0.0 0.00 0.00 0.00 70 1011.7
20260505183442 0 0.0 0.0 0.00 0.00 0.00 70 1011.7
20260505182942 0 0.0 0.0 0.00 0.00 0.00 69 1011.7
20260505182442 0 0.0 0.0 0.00 0.00 0.00 68 1011.7
20260505181942 0 0.0 0.0 0.00 0.00 0.00 68 1011.8
20260505181442 0 0.0 0.0 0.00 0.00 0.00 67 1011.8
20260505180942 0 0.0 0.0 0.00 0.00 0.00 67 1011.7
20260505180442 0 0.0 0.0 0.00 0.00 0.00 66 1011.5
20260505175942 0 0.0 0.0 0.00 0.00 0.00 66 1011.6
20260505175442 0 0.0 0.0 0.00 0.00 0.00 65 1011.5
20260505174942 0 0.0 0.0 0.00 0.00 0.00 65 1011.7
20260505174442 0 0.0 0.0 0.00 0.00 0.00 65 1011.8
20260505173942 0 0.0 0.0 0.00 0.00 0.00 67 1011.7
20260505173442 0 0.0 0.0 0.00 0.00 0.00 68 1011.7
20260505172942 0 0.0 0.0 0.00 0.00 0.00 68 1011.5
20260505172442 0 0.0 0.0 0.00 0.00 0.00 68 1011.6
20260505171942 0 0.0 0.0 0.00 0.00 0.00 70 1011.5
20260505171442 0 0.0 0.0 0.00 0.00 0.00 69 1011.4
20260505170942 0 0.0 0.0 0.00 0.00 0.00 70 1011.4
20260505170442 0 0.0 0.0 0.00 0.00 0.00 70 1011.4
20260505165942 0 0.0 0.0 0.00 0.00 0.00 70 1011.4
20260505165442 0 0.0 0.0 0.00 0.00 0.00 68 1011.5
20260505164942 0 0.0 0.0 0.00 0.00 0.00 68 1011.6
20260505164442 0 0.0 0.0 0.00 0.00 0.00 68 1011.3
20260505163942 0 0.0 0.0 0.00 0.00 0.00 68 1011.5
20260505163442 0 0.0 0.0 0.00 0.00 0.00 66 1011.6
20260505162942 0 0.0 0.0 0.00 0.00 0.00 67 1011.5
20260505162442 0 0.0 0.0 0.00 0.00 0.00 66 1011.6
20260505161942 0 0.0 0.0 0.00 0.00 0.00 65 1011.6
20260505161442 0 0.0 0.0 0.00 0.00 0.00 64 1011.8
20260505160942 0 0.0 0.0 0.00 0.00 0.00 63 1011.8
20260505160442 0 0.0 0.0 0.00 0.00 0.00 62 1011.9
20260505152942 0 0.0 0.0 0.00 0.00 0.00 62 1011.6
20260505152442 0 0.0 0.0 0.00 0.00 0.00 63 1011.6
20260505151942 0 0.0 0.0 0.00 0.00 0.00 63 1011.7
20260505151442 0 0.0 0.0 0.00 0.00 0.00 64 1011.5
20260505150942 0 0.0 0.0 0.00 0.00 0.00 67 1011.5
20260505150442 0 0.0 0.0 0.00 0.00 0.00 70 1011.4
20260505140442 0 0.0 0.0 0.00 0.00 0.00 58 1011.2
20260505124942 0 0.0 0.0 0.00 0.00 0.00 52 1011.6
20260505124442 0 0.0 0.0 0.00 0.00 0.00 52 1011.5
20260505123942 0 0.0 0.0 0.00 0.00 0.00 52 1011.6
20260505123442 0 0.0 0.0 0.00 0.00 0.00 49 1011.5
20260505122942 0 0.0 0.0 0.00 0.00 0.00 53 1011.6
20260505122442 0 0.0 0.0 0.00 0.00 0.00 57 1011.5
20260505121942 0 0.0 0.0 0.00 0.00 0.00 57 1011.6
20260505121442 0 0.0 0.0 0.00 0.00 0.00 53 1011.5
20260505120942 0 0.0 0.0 0.00 0.00 0.00 50 1011.5
20260505120442 0 0.0 0.0 0.00 0.00 0.00 53 1011.6
20260505115942 0 0.0 0.0 0.00 0.00 0.00 57 1011.7
20260505115442 0 0.0 0.0 0.00 0.00 0.00 59 1011.7
20260505114942 0 0.0 0.0 0.00 0.00 0.00 59 1011.7
20260505114442 0 0.0 0.0 0.00 0.00 0.00 62 1011.7
20260505113942 0 0.0 0.0 0.00 0.00 0.00 65 1011.7
20260505113442 0 0.0 0.0 0.00 0.00 0.00 67 1011.7
20260505112942 0 0.0 0.0 0.00 0.00 0.00 72 1011.8
20260505112442 0 0.0 0.0 0.00 0.00 0.00 71 1011.7
20260505111942 0 0.0 0.0 0.00 0.00 0.00 67 1011.7
20260505111442 0 0.0 0.0 0.00 0.00 0.00 66 1011.7
20260505110942 0 0.0 0.0 0.00 0.00 0.00 63 1011.7
20260505110442 0 0.0 0.0 0.00 0.00 0.00 66 1011.8
20260505101942 0 0.0 0.0 0.00 0.00 0.00 74 1012.2
20260505101442 0 0.0 0.0 0.00 0.00 0.00 74 1012.2
20260505100942 0 0.0 0.0 0.00 0.00 0.00 74 1012.2
20260505100442 0 0.0 0.0 0.00 0.00 0.00 73 1012.2
20260505095942 0 0.0 0.0 0.00 0.00 0.00 75 1012.2
20260505095442 0 0.0 0.0 0.00 0.00 0.00 74 1012.2
20260505094942 0 0.0 0.0 0.00 0.00 0.00 73 1012.0
20260505094442 0 0.0 0.0 0.00 0.00 0.00 75 1012.0
20260505093942 0 0.0 0.0 0.00 0.00 0.00 74 1012.0
20260505093442 0 0.0 0.0 0.00 0.00 0.00 75 1012.0
20260505092942 0 0.0 0.0 0.00 0.00 0.00 74 1012.0
20260505092442 0 0.0 0.0 0.00 0.00 0.00 72 1011.9
20260505091942 0 0.0 0.0 0.00 0.00 0.00 73 1011.9
20260505091442 0 0.0 0.0 0.00 0.00 0.00 75 1012.0
20260505090942 0 0.0 0.0 0.00 0.00 0.00 75 1012.0
20260505090442 0 0.0 0.0 0.00 0.00 0.00 78 1012.1
20260505085942 0 0.0 0.0 0.00 0.00 0.00 78 1012.2
20260505085442 0 0.0 0.0 0.00 0.00 0.00 79 1012.1
20260505084942 0 0.0 0.0 0.00 0.00 0.00 78 1012.2
20260505084442 0 0.0 0.0 0.00 0.00 0.00 78 1012.1
20260505083942 0 0.0 0.0 0.00 0.00 0.00 80 1012.3
20260505083442 0 0.0 0.0 0.00 0.00 0.00 79 1012.2
20260505082942 0 0.0 0.0 0.00 0.00 0.00 79 1012.3
20260505082442 0 0.0 0.0 0.00 0.00 0.00 80 1012.3
20260505081942 0 0.0 0.0 0.00 0.00 0.00 76 1012.2
20260505081442 0 0.0 0.0 0.00 0.00 0.00 73 1012.1
20260505080942 0 0.0 0.0 0.00 0.00 0.00 73 1012.2
20260505080442 0 0.0 0.0 0.00 0.00 0.00 75 1012.4
20260505075942 0 0.0 0.0 0.00 0.00 0.00 78 1012.4
20260505075442 0 0.0 0.0 0.00 0.00 0.00 78 1012.5
20260505074942 0 0.0 0.0 0.00 0.00 0.00 79 1012.7
20260505074442 0 0.0 0.0 0.00 0.00 0.00 79 1012.8
20260505073942 0 0.0 0.0 0.00 0.00 0.00 79 1012.8
20260505073442 0 0.0 0.0 0.00 0.00 0.00 82 1012.9
20260505072942 0 0.0 0.0 0.00 0.00 0.00 81 1012.8
20260505072442 0 0.0 0.0 0.00 0.00 0.00 82 1012.8
20260505071942 0 0.0 0.0 0.00 0.00 0.00 83 1012.9
20260505071442 0 0.0 0.0 0.00 0.00 0.00 83 1013.0
20260505070942 0 0.0 0.0 0.00 0.00 0.00 83 1013.0
20260505070442 0 0.0 0.0 0.00 0.00 0.00 84 1013.0
20260505065942 0 0.0 0.0 0.00 0.00 0.00 82 1013.0
20260505065442 0 0.0 0.0 0.00 0.00 0.00 82 1013.0
20260505064942 0 0.0 0.0 0.00 0.00 0.00 83 1013.0
20260505064442 0 0.0 0.0 0.00 0.00 0.00 83 1013.0
20260505063942 0 0.0 0.0 0.00 0.00 0.00 83 1013.1
20260505063442 0 0.0 0.0 0.00 0.00 0.00 83 1013.1
20260505062942 0 0.0 0.0 0.00 0.00 0.00 83 1013.2
20260505062442 0 0.0 0.0 0.00 0.00 0.00 83 1013.2
20260505061942 0 0.0 0.0 0.00 0.00 0.00 82 1013.2
20260505061442 0 0.0 0.0 0.00 0.00 0.00 82 1013.2
20260505060942 0 0.0 0.0 0.00 0.00 0.00 82 1013.2
20260505060442 0 0.0 0.0 0.00 0.00 0.00 83 1013.4
20260505055942 0 0.0 0.0 0.00 0.00 0.00 83 1013.2
20260505055442 0 0.0 0.0 0.00 0.00 0.00 83 1013.3
20260505054942 0 0.0 0.0 0.00 0.00 0.00 84 1013.2
20260505054442 0 0.0 0.0 0.00 0.00 0.00 84 1013.1
20260505053942 0 0.0 0.0 0.00 0.00 0.00 82 1013.1
20260505053442 0 0.0 0.0 0.00 0.00 0.00 82 1013.1
20260505052942 0 0.0 0.0 0.00 0.00 0.00 83 1013.1
20260505052442 0 0.0 0.0 0.00 0.00 0.00 81 1013.0
20260505051942 0 0.0 0.0 0.00 0.00 0.00 82 1012.9
20260505051442 0 0.0 0.0 0.00 0.00 0.00 82 1012.9
20260505050942 0 0.0 0.0 0.00 0.00 0.00 82 1012.9
20260505050442 0 0.0 0.0 0.00 0.00 0.00 81 1013.0
20260505041442 0 0.0 0.0 0.00 0.00 0.00 84 1013.4
20260505040942 0 0.0 0.0 0.00 0.00 0.00 84 1013.5
20260505040442 0 0.0 0.0 0.00 0.00 0.00 84 1013.3
20260505035942 0 0.0 0.0 0.00 0.00 0.00 84 1013.2
20260505035442 0 0.0 0.0 0.00 0.00 0.00 84 1013.1
20260505034942 0 0.0 0.0 0.00 0.00 0.00 82 1013.1
20260505034442 0 0.0 0.0 0.00 0.00 0.00 82 1013.0
20260505033942 0 0.0 0.0 0.00 0.00 0.00 82 1013.0
20260505033442 0 0.0 0.0 0.00 0.00 0.00 83 1013.1
20260505032942 0 0.0 0.0 0.00 0.00 0.00 82 1013.2
20260505032442 0 0.0 0.0 0.00 0.00 0.00 82 1013.4
20260505031942 0 0.0 0.0 0.00 0.00 0.00 82 1013.5
20260505031442 0 0.0 0.0 0.00 0.00 0.00 81 1013.5
20260505030942 0 0.0 0.0 0.00 0.00 0.00 81 1013.5
20260505030442 0 0.0 0.0 0.00 0.00 0.00 81 1013.5
20260505025942 0 0.0 0.0 0.00 0.00 0.00 82 1013.4
20260505025442 0 0.0 0.0 0.00 0.00 0.00 81 1013.4
20260505024942 0 0.0 0.0 0.00 0.00 0.00 81 1013.4
20260505024442 0 0.0 0.0 0.00 0.00 0.00 83 1013.5
20260505023942 0 0.0 0.0 0.00 0.00 0.00 83 1013.6
20260505023442 0 0.0 0.0 0.00 0.00 0.00 83 1013.5
20260505022942 0 0.0 0.0 0.00 0.00 0.00 82 1013.7
20260505022442 0 0.0 0.0 0.00 0.00 0.00 82 1013.8
20260505021942 0 0.0 0.0 0.00 0.00 0.00 82 1013.9
20260505021442 0 0.0 0.0 0.00 0.00 0.00 82 1013.9
20260505020942 0 0.0 0.0 0.00 0.00 0.00 81 1013.8
20260505020442 0 0.0 0.0 0.00 0.00 0.00 82 1013.8
20260505015942 0 0.0 0.0 0.00 0.00 0.00 82 1013.9
20260505015442 0 0.0 0.0 0.00 0.00 0.00 81 1013.9
20260505014942 0 0.0 0.0 0.00 0.00 0.00 82 1013.8
20260505014442 0 0.0 0.0 0.00 0.00 0.00 81 1013.7
20260505013942 0 0.0 0.0 0.00 0.00 0.00 81 1013.7
20260505013442 0 0.0 0.0 0.00 0.00 0.00 81 1014.0
20260505012942 0 0.0 0.0 0.00 0.00 0.00 80 1013.8
20260505012442 0 0.0 0.0 0.00 0.00 0.00 80 1013.9
20260505011942 0 0.0 0.0 0.00 0.00 0.00 81 1013.9
20260505011442 0 0.0 0.0 0.00 0.00 0.00 81 1014.0
20260505010942 0 0.0 0.0 0.00 0.00 0.00 82 1014.1
20260505010442 0 0.0 0.0 0.00 0.00 0.00 82 1014.1
20260505005942 0 0.0 0.0 0.00 0.00 0.00 81 1014.3
20260505005442 0 0.0 0.0 0.00 0.00 0.00 81 1014.3
20260505004942 0 0.0 0.0 0.00 0.00 0.00 81 1014.4
20260505004442 0 0.0 0.0 0.00 0.00 0.00 82 1014.6
20260505003942 0 0.0 0.0 0.00 0.00 0.00 81 1014.6
20260505003442 0 0.0 0.0 0.00 0.00 0.00 82 1014.8
20260505002942 0 0.0 0.0 0.00 0.00 0.00 81 1014.8
20260505002442 0 0.0 0.0 0.00 0.00 0.00 81 1014.7
20260505001942 0 0.0 0.0 0.00 0.00 0.00 81 1014.9
20260505001442 0 0.0 0.0 0.00 0.00 0.00 81 1014.8
20260505000942 0 0.0 0.0 0.00 0.00 0.00 80 1014.9
20260505000442 0 0.0 0.0 0.00 0.00 0.00 80 1014.9
20260504235942 0 0.0 0.0 0.00 0.00 0.00 80 1014.9
20260504235442 0 0.0 0.0 0.00 0.00 0.00 80 1015.0
20260504234942 0 0.0 0.0 0.00 0.00 0.00 80 1015.1
20260504234442 0 0.0 0.0 0.00 0.00 0.00 80 1015.2
20260504233942 0 0.0 0.0 0.00 0.00 0.00 80 1015.2
20260504233442 0 0.0 0.0 0.00 0.00 0.00 80 1015.1
20260504232942 0 0.0 0.0 0.00 0.00 0.00 80 1015.2
20260504232442 0 0.0 0.0 0.00 0.00 0.00 80 1015.3
20260504231942 0 0.0 0.0 0.00 0.00 0.00 80 1015.5
20260504231442 0 0.0 0.0 0.00 0.00 0.00 79 1015.5
20260504230942 0 0.0 0.0 0.00 0.00 0.00 79 1015.5
20260504230442 0 0.0 0.0 0.00 0.00 0.00 80 1015.5
20260504225942 0 0.0 0.0 0.00 0.00 0.00 80 1015.5
20260504225442 0 0.0 0.0 0.00 0.00 0.00 80 1015.5
20260504224942 0 0.0 0.0 0.00 0.00 0.00 81 1015.4
20260504224442 0 0.0 0.0 0.00 0.00 0.00 81 1015.5
20260504223942 0 0.0 0.0 0.00 0.00 0.00 81 1015.6
20260504223442 0 0.0 0.0 0.00 0.00 0.00 79 1015.5
20260504222942 0 0.0 0.0 0.00 0.00 0.00 79 1015.7
20260504222442 0 0.0 0.0 0.00 0.00 0.00 79 1015.8
20260504221942 0 0.0 0.0 0.00 0.00 0.00 78 1015.8
20260504221442 0 0.0 0.0 0.00 0.00 0.00 79 1015.7
20260504220942 0 0.0 0.0 0.00 0.00 0.00 79 1015.7
20260504220442 0 0.0 0.0 0.00 0.00 0.00 80 1015.8
20260504215942 0 0.0 0.0 0.00 0.00 0.00 79 1015.6
20260504215442 0 0.0 0.0 0.00 0.00 0.00 80 1015.7
20260504214942 0 0.0 0.0 0.00 0.00 0.00 79 1015.8
20260504214442 0 0.0 0.0 0.00 0.00 0.00 78 1015.8
20260504213942 0 0.0 0.0 0.00 0.00 0.00 78 1015.9
20260504213442 0 0.0 0.0 0.00 0.00 0.00 78 1015.9
20260504212942 0 0.0 0.0 0.00 0.00 0.00 78 1015.8
20260504212442 0 0.0 0.0 0.00 0.00 0.00 79 1015.8
20260504211942 0 0.0 0.0 0.00 0.00 0.00 78 1015.9
20260504211442 0 0.0 0.0 0.00 0.00 0.00 78 1016.0
20260504210942 0 0.0 0.0 0.00 0.00 0.00 77 1016.1
20260504210442 0 0.0 0.0 0.00 0.00 0.00 77 1016.1
20260504205942 0 0.0 0.0 0.00 0.00 0.00 75 1016.3
20260504205442 0 0.0 0.0 0.00 0.00 0.00 75 1016.4
20260504204942 0 0.0 0.0 0.00 0.00 0.00 76 1016.4
20260504204442 0 0.0 0.0 0.00 0.00 0.00 76 1016.4
20260504203942 0 0.0 0.0 0.00 0.00 0.00 76 1016.4
20260504203442 0 0.0 0.0 0.00 0.00 0.00 77 1016.3
20260504202942 0 0.0 0.0 0.00 0.00 0.00 78 1016.3
20260504202442 0 0.0 0.0 0.00 0.00 0.00 77 1016.4
20260504201942 0 0.0 0.0 0.00 0.00 0.00 77 1016.3
20260504201442 0 0.0 0.0 0.00 0.00 0.00 77 1016.3
20260504200942 0 0.0 0.0 0.00 0.00 0.00 76 1016.3